Total_Precipitation_Accumulation
0.36 0.36 0.35 0.30 0.25 0.23 0.21 0.19 0.15 0.13 0.14 0.15 0.20 0.25 0.26 0.32 0.45 0.62 0.71 0.71 0.70 0.69 0.70 0.79 0.92 0.96 1.02 0.98 0.92 0.80 0.69 0.67 0.65 0.58 0.40 0.21 0.19 0.18 0.15 0.06 0.02 0.01 0.00
0.39 0.40 0.37 0.28 0.23 0.21 0.20 0.18 0.13 0.13 0.11 0.10 0.16 0.21 0.25 0.25 0.29 0.42 0.54 0.57 0.59 0.62 0.63 0.66 0.76 0.85 0.96 1.03 1.04 0.99 0.95 0.83 0.79 0.76 0.62 0.39 0.26 0.21 0.16 0.12 0.07 0.04 0.03
0.55 0.56 0.49 0.36 0.30 0.27 0.23 0.19 0.14 0.13 0.12 0.11 0.14 0.18 0.24 0.23 0.24 0.27 0.34 0.40 0.44 0.45 0.46 0.48 0.52 0.62 0.75 0.89 0.98 1.00 1.02 1.02 0.96 0.88 0.77 0.62 0.40 0.27 0.21 0.16 0.12 0.10 0.07
0.85 0.78 0.61 0.49 0.40 0.33 0.27 0.21 0.18 0.16 0.14 0.14 0.18 0.20 0.19 0.14 0.17 0.22 0.25 0.28 0.29 0.28 0.29 0.29 0.31 0.36 0.46 0.60 0.76 0.91 1.02 1.07 1.10 1.06 0.89 0.69 0.56 0.45 0.29 0.20 0.19 0.17 0.13
0.89 0.78 0.61 0.47 0.37 0.30 0.30 0.25 0.24 0.23 0.19 0.19 0.20 0.20 0.18 0.15 0.18 0.24 0.23 0.20 0.21 0.21 0.18 0.15 0.16 0.22 0.26 0.33 0.40 0.59 0.80 0.94 1.00 1.03 0.95 0.77 0.61 0.51 0.38 0.31 0.28 0.26 0.21
0.86 0.72 0.52 0.39 0.33 0.30 0.31 0.29 0.27 0.25 0.22 0.23 0.24 0.28 0.30 0.25 0.36 0.35 0.27 0.18 0.18 0.16 0.12 0.11 0.14 0.18 0.19 0.18 0.19 0.28 0.45 0.62 0.77 0.89 0.93 0.83 0.70 0.61 0.54 0.46 0.36 0.29 0.24
0.60 0.55 0.43 0.34 0.32 0.31 0.29 0.29 0.30 0.31 0.30 0.30 0.28 0.30 0.34 0.44 0.40 0.27 0.24 0.21 0.22 0.21 0.18 0.18 0.17 0.16 0.20 0.17 0.17 0.18 0.22 0.25 0.38 0.58 0.74 0.80 0.87 0.75 0.59 0.47 0.38 0.32 0.32
0.51 0.50 0.42 0.37 0.33 0.32 0.31 0.32 0.39 0.39 0.36 0.36 0.35 0.32 0.34 0.43 0.35 0.22 0.21 0.20 0.26 0.30 0.25 0.22 0.24 0.21 0.21 0.23 0.25 0.30 0.29 0.26 0.33 0.27 0.37 0.65 0.72 0.71 0.63 0.54 0.49 0.42 0.35
0.30 0.34 0.33 0.28 0.29 0.32 0.32 0.37 0.40 0.40 0.42 0.42 0.41 0.39 0.40 0.40 0.30 0.21 0.23 0.30 0.38 0.39 0.29 0.29 0.28 0.25 0.32 0.29 0.35 0.47 0.47 0.41 0.52 0.50 0.47 0.49 0.50 0.47 0.48 0.51 0.50 0.44 0.37
0.10 0.14 0.18 0.19 0.22 0.28 0.36 0.42 0.39 0.37 0.41 0.40 0.37 0.33 0.35 0.34 0.35 0.22 0.27 0.38 0.43 0.42 0.38 0.40 0.48 0.39 0.39 0.28 0.26 0.41 0.49 0.44 0.38 0.40 0.37 0.30 0.23 0.24 0.30 0.32 0.45 0.50 0.48
0.02 0.04 0.07 0.11 0.16 0.25 0.32 0.31 0.30 0.32 0.35 0.34 0.37 0.35 0.33 0.38 0.46 0.42 0.43 0.45 0.49 0.51 0.52 0.57 0.54 0.54 0.35 0.24 0.22 0.26 0.32 0.34 0.37 0.41 0.44 0.37 0.28 0.26 0.24 0.24 0.28 0.33 0.40
0.00 0.01 0.02 0.04 0.07 0.12 0.19 0.22 0.24 0.28 0.29 0.28 0.28 0.29 0.31 0.40 0.46 0.46 0.46 0.48 0.52 0.50 0.53 0.51 0.45 0.45 0.30 0.20 0.16 0.19 0.18 0.17 0.25 0.37 0.41 0.39 0.39 0.38 0.33 0.30 0.26 0.24 0.28
0.00 0.00 0.00 0.01 0.02 0.05 0.12 0.16 0.20 0.26 0.28 0.26 0.24 0.25 0.28 0.31 0.37 0.38 0.38 0.36 0.36 0.39 0.36 0.37 0.32 0.23 0.18 0.13 0.13 0.13 0.14 0.16 0.22 0.28 0.34 0.36 0.36 0.37 0.37 0.35 0.31 0.26 0.23
0.00 0.00 0.00 0.01 0.01 0.03 0.05 0.12 0.21 0.24 0.22 0.23 0.24 0.26 0.28 0.31 0.31 0.29 0.31 0.33 0.29 0.30 0.28 0.23 0.19 0.14 0.13 0.14 0.14 0.13 0.14 0.18 0.24 0.27 0.30 0.33 0.35 0.35 0.36 0.35 0.37 0.38 0.38
0.00 0.00 0.00 0.00 0.01 0.02 0.02 0.06 0.13 0.15 0.14 0.18 0.23 0.27 0.31 0.33 0.29 0.25 0.25 0.29 0.33 0.36 0.38 0.29 0.22 0.19 0.17 0.20 0.22 0.20 0.20 0.22 0.25 0.26 0.27 0.27 0.28 0.32 0.35 0.32 0.31 0.33 0.35
0.00 0.00 0.00 0.00 0.01 0.01 0.02 0.03 0.05 0.05 0.07 0.08 0.09 0.13 0.13 0.12 0.13 0.12 0.13 0.16 0.21 0.25 0.37 0.42 0.42 0.45 0.44 0.41 0.37 0.30 0.25 0.24 0.26 0.31 0.30 0.27 0.28 0.28 0.32 0.33 0.31 0.31 0.30
0.00 0.00 0.00 0.00 0.01 0.01 0.02 0.05 0.05 0.03 0.01 0.01 0.02 0.03 0.06 0.07 0.09 0.11 0.12 0.14 0.17 0.20 0.38 0.51 0.52 0.49 0.43 0.38 0.35 0.30 0.24 0.19 0.19 0.23 0.30 0.34 0.32 0.32 0.34 0.37 0.35 0.31 0.29
0.00 0.00 0.00 0.02 0.02 0.02 0.04 0.07 0.13 0.15 0.11 0.04 0.01 0.01 0.03 0.04 0.06 0.10 0.16 0.22 0.21 0.21 0.34 0.41 0.40 0.38 0.31 0.23 0.16 0.13 0.13 0.11 0.10 0.10 0.12 0.19 0.30 0.38 0.44 0.47 0.49 0.50 0.47
0.00 0.01 0.01 0.04 0.04 0.05 0.06 0.10 0.13 0.13 0.10 0.05 0.03 0.02 0.01 0.02 0.02 0.04 0.09 0.15 0.15 0.14 0.16 0.15 0.16 0.16 0.14 0.11 0.08 0.05 0.04 0.04 0.04 0.04 0.05 0.07 0.13 0.25 0.38 0.47 0.51 0.54 0.53
0.00 0.00 0.01 0.03 0.05 0.04 0.05 0.06 0.09 0.08 0.05 0.04 0.04 0.03 0.03 0.04 0.04 0.04 0.04 0.07 0.09 0.08 0.07 0.07 0.06 0.06 0.06 0.05 0.05 0.04 0.04 0.03 0.04 0.05 0.08 0.12 0.17 0.19 0.22 0.31 0.41 0.45 0.43
0.00 0.00 0.00 0.02 0.04 0.04 0.04 0.02 0.03 0.05 0.04 0.03 0.02 0.01 0.02 0.06 0.08 0.06 0.04 0.04 0.05 0.06 0.06 0.05 0.05 0.04 0.03 0.04 0.04 0.04 0.03 0.03 0.03 0.03 0.06 0.12 0.18 0.24 0.25 0.24 0.25 0.29 0.33
0.00 0.00 0.01 0.03 0.05 0.05 0.03 0.03 0.03 0.04 0.03 0.02 0.02 0.01 0.01 0.06 0.07 0.07 0.07 0.05 0.05 0.05 0.04 0.04 0.05 0.05 0.04 0.04 0.04 0.04 0.03 0.03 0.03 0.03 0.04 0.05 0.08 0.13 0.18 0.23 0.25 0.25 0.26
0.00 0.00 0.00 0.02 0.03 0.03 0.03 0.03 0.03 0.04 0.04 0.03 0.02 0.02 0.02 0.04 0.05 0.06 0.07 0.07 0.06 0.06 0.05 0.07 0.07 0.07 0.07 0.08 0.07 0.06 0.05 0.05 0.05 0.05 0.06 0.05 0.05 0.06 0.08 0.11 0.14 0.17 0.19
0.00 0.00 0.01 0.02 0.02 0.02 0.03 0.04 0.04 0.03 0.04 0.03 0.03 0.03 0.04 0.05 0.04 0.04 0.04 0.04 0.03 0.04 0.04 0.05 0.06 0.07 0.08 0.10 0.10 0.10 0.09 0.08 0.06 0.05 0.07 0.09 0.10 0.10 0.10 0.10 0.11 0.13 0.17
0.00 0.00 0.01 0.01 0.02 0.02 0.02 0.02 0.03 0.03 0.03 0.03 0.04 0.03 0.03 0.04 0.04 0.03 0.03 0.03 0.04 0.03 0.03 0.02 0.03 0.04 0.07 0.12 0.13 0.10 0.12 0.11 0.08 0.05 0.04 0.06 0.08 0.09 0.11 0.13 0.16 0.19 0.24
0.00 0.00 0.01 0.01 0.02 0.02 0.02 0.02 0.03 0.03 0.03 0.03 0.03 0.03 0.03 0.03 0.03 0.03 0.03 0.04 0.04 0.03 0.02 0.03 0.04 0.03 0.04 0.09 0.13 0.16 0.13 0.09 0.09 0.09 0.05 0.04 0.07 0.11 0.14 0.17 0.20 0.25 0.28